Location: Azul
(36.7830°S, 59.8500°W)
Time: 21:20:36
(UTC-03:00)

RS-44 - Pass Details

Date: 19 September 2024
Orbit: 1174 x 1511 km, 82.5° (Epoch: 11 October)

Event Time Altitude Azimuth Distance (km) Brightness Sun altitude
Rises 02:24:33 0° 180° (S) 4,420 ? -48.7°
Reaches altitude 10° 02:27:32 10° 173° (S) 3,487 ? -48.3°
Enters shadow 02:33:24 37° 134° (SE) 2,112 ? -47.6°
